Debrecen, Hungary

10:18 AM CET on February 14, 2016 (GMT +0100)
Debrecen

Weather History for LHDC - November, 2013

Change the Weather History Date:

Saturday, November 2, 2013

  Actual Average Record
Temperature  
Mean Temperature 56 °F -  
Max Temperature 63 °F 46 °F - ()
Min Temperature 50 °F 34 °F - ()
Degree Days  
Heating Degree Days 8    
Growing Degree Days 6 (Base 50)    
Moisture  
Dew Point 49 °F    
Average Humidity 73    
Maximum Humidity 88    
Minimum Humidity 50    
Precipitation  
Precipitation 0.00 in 0.06 in - ()
Sea Level Pressure  
Sea Level Pressure 30.01 in    
Wind  
Wind Speed 8 mph ()    
Max Wind Speed 15 mph    
Max Gust Speed 24 mph    
Visibility 5.3 miles    
Events Rain    
T = Trace of Precipitation, MM = Missing Value Source: Averaged Metar Reports

Daily Weather History Graph

Daily Weather History Graph

Search for Another Location

Airport or City:

Trip Planner

Search our weather history database for the weather conditions in past years. The results will help you decide how hot, cold, wet, or windy it might be!

Date:

Astronomy

Nov. 02, 2013 Rise Set
Actual Time 6:18 AM CET 4:14 PM CET
Civil Twilight 5:46 AM CET 4:47 PM CET
Nautical Twilight 5:10 AM CET 5:23 PM CET
Astronomical Twilight 4:34 AM CET 5:59 PM CET
Moon 4:51 AM CET (11/2) 3:36 PM CET (11/2)
Length of Visible Light 11h 00m
Length of Day
9h 56m
Waning Crescent, 2% of the Moon is Illuminated
Nov 2
Waning Crescent
Nov 3
New
Nov 10
First Quarter
Nov 17
Full
Nov 25
Last Quarter

Hourly Weather History & Observations

Time (CET) Temp. Dew Point Humidity Pressure Visibility Wind Dir Wind Speed Gust Speed Precip Events Conditions
1:00 AM 54 °F 50 °F 82% 30.13 in - South 6.7 mph - -  
5:15 AM 53.6 °F 48.2 °F 82% 30.09 in - South 6.9 mph - N/A   Clear
5:45 AM 51.8 °F 46.4 °F 82% 30.06 in - South 5.8 mph - N/A   Clear
6:00 AM - - N/A% - - South 5.8 mph - N/A   Dust Whirls
6:15 AM 50.0 °F 46.4 °F 87% 30.06 in 4.3 mi South 5.8 mph - N/A   Mostly Cloudy
6:45 AM 51.8 °F 48.2 °F 88% 30.06 in 4.3 mi South 6.9 mph - N/A   Mostly Cloudy
7:00 AM 51 °F 48 °F 84% 30.07 in 4 mi South 6.7 mph - -   Partly Cloudy
7:15 AM 51.8 °F 48.2 °F 88% 30.06 in 4.3 mi South 5.8 mph - N/A   Mostly Cloudy
7:45 AM 51.8 °F 48.2 °F 88% 30.06 in 4.3 mi South 4.6 mph - N/A   Overcast
8:15 AM 53.6 °F 48.2 °F 82% 30.06 in 4.3 mi South 5.8 mph - N/A   Overcast
8:45 AM 53.6 °F 48.2 °F 82% 30.06 in 4.3 mi South 5.8 mph - N/A   Overcast
9:00 AM - - N/A% - 6.2 mi South 5.8 mph - N/A   Mostly Cloudy
9:15 AM 55.4 °F 50.0 °F 82% 30.06 in 5.0 mi South 5.8 mph - N/A   Mostly Cloudy
9:45 AM 55.4 °F 50.0 °F 82% 30.06 in 6.2 mi South 5.8 mph - N/A   Mostly Cloudy
10:15 AM 59.0 °F 50.0 °F 72% 30.04 in 6.2 mi South 10.4 mph - N/A   Mostly Cloudy
10:45 AM 60.8 °F 50.0 °F 68% 30.04 in 6.2 mi SSW 12.7 mph - N/A   Mostly Cloudy
11:15 AM 60.8 °F 48.2 °F 63% 30.04 in 6.2 mi South 13.8 mph - N/A   Mostly Cloudy
11:45 AM 60.8 °F 48.2 °F 63% 30.01 in 6.2 mi SSW 15.0 mph - N/A   Mostly Cloudy
12:00 PM - - N/A% - 6.2 mi SSW 12.7 mph 24.2 mph N/A   Mostly Cloudy
12:15 PM 62.6 °F 48.2 °F 59% 30.01 in 6.2 mi South 15.0 mph - N/A   Scattered Clouds
12:45 PM 62.6 °F 48.2 °F 59% 29.98 in - South 13.8 mph - N/A   Clear
1:00 PM 63 °F 49 °F 50% 29.98 in 9 mi South 13.4 mph - -   Partly Cloudy
1:15 PM 62.6 °F 50.0 °F 63% 29.98 in - South 13.8 mph - N/A   Clear
1:45 PM 62.6 °F 50.0 °F 63% 29.95 in - South 15.0 mph - N/A   Clear
2:15 PM 62.6 °F 50.0 °F 63% 29.95 in - South 13.8 mph - N/A   Clear
2:45 PM 62.6 °F 50.0 °F 63% 29.95 in - South 13.8 mph - N/A   Clear
3:15 PM 62.6 °F 50.0 °F 63% 29.92 in - South 15.0 mph - N/A   Clear
3:45 PM 60.8 °F 50.0 °F 68% 29.92 in - South 12.7 mph - N/A   Clear
4:15 PM 60.8 °F 50.0 °F 68% 29.92 in 4.3 mi South 10.4 mph - N/A   Mostly Cloudy
4:25 PM 60.8 °F 50.0 °F 68% 29.92 in - South 9.2 mph - N/A   Unknown
4:45 PM 60.8 °F 51.8 °F 72% 29.92 in 3.7 mi South 10.4 mph - N/A Rain Light Rain
5:00 PM - - N/A% - - North - - N/A   Unknown
7:00 PM 59 °F 53 °F 73% 29.92 in - SSW 13.4 mph - -